KUIPER-00272

导读

KUIPER-00272(NORAD编号68588)是亚马逊Kuiper(现已更名为Amazon Leo)低轨卫星互联网星座计划部署的卫星之一,该项目旨在为全球网络覆盖不足地区提供高速低延迟互联网服务。KUIPER系列卫星运行于近地轨道,单星作为星座组网单元,支撑起全球卫星互联网络的基础设施建设。当前Leo星座一期规划3232颗卫星,已进入加速发射阶段,KUIPER-00272是该星座规模化部署进程中的一颗组网卫星,服务未来个人、企业及政府多场景卫星互联网应用。

Basic Information
目录编号:
68588
目录名称:
KUIPER-00272
国际标识:
2026-072R
轨道中心:
EARTH
卫星名称:
KUIPER-00272
卫星全名:
KUIPER-00272
卫星状态:
在轨 (已飞行70 天)
发射日期:
2026-04-04 UTC
国别 :
美国 (US)
星等 :
--
Orbit Information
数据来源 国际轨道数据 AOE轨道数据
星历时间 2026-06-11T18:53:16+0800
1天前
查看轨道信息
2026-06-10T04:00:00+0800
3天前
查看轨道信息
半长轴 7007.713km 7007.735km
偏心率 0.0000827 0.0000852
轨道倾角 51.897° 51.896°
近地点辐角 55.116° 16.546°
升交点赤经 218.497° 225.665°
平近点角 304.988° 345.703°
近地点 628.996km 629km
远地点 630.156km 630.196km
周期 97.303分钟 97.303分钟
每日圈数 14.799204 14.799135
Detailed Information
使用方式:
暂无
2D Orbit Map
3D Orbit Map
Orbit Altitude Analysis Chart
Orbit Inclination Analysis Chart
Orbit Comprehensive Analysis Chart
View Comprehensive Chart